Precipitable_Water
0.54 0.51 0.53 0.56 0.55 0.56 0.57 0.59 0.59 0.59 0.62 0.66 0.68 0.70 0.74 0.74 0.74 0.77 0.78 0.73 0.67 0.66 0.63 0.67 0.67 0.65 0.55 0.43 0.39 0.53 0.74 0.66 0.62 0.50 0.42 0.37 0.33 0.35 0.30 0.29 0.31 0.28 0.28 0.33 0.36 0.34 0.36
0.53 0.52 0.50 0.49 0.49 0.49 0.50 0.51 0.53 0.54 0.55 0.55 0.59 0.65 0.70 0.75 0.75 0.75 0.74 0.77 0.74 0.67 0.60 0.62 0.65 0.67 0.53 0.37 0.47 0.51 0.51 0.65 0.51 0.46 0.46 0.44 0.36 0.36 0.33 0.30 0.31 0.34 0.33 0.32 0.34 0.33 0.39
0.52 0.50 0.51 0.52 0.50 0.49 0.47 0.46 0.47 0.48 0.50 0.52 0.54 0.60 0.66 0.70 0.77 0.74 0.77 0.78 0.74 0.71 0.65 0.62 0.65 0.63 0.47 0.37 0.42 0.51 0.55 0.57 0.56 0.47 0.44 0.47 0.42 0.39 0.39 0.32 0.38 0.35 0.28 0.30 0.30 0.33 0.36
0.51 0.50 0.50 0.47 0.47 0.46 0.46 0.47 0.48 0.48 0.48 0.49 0.50 0.54 0.60 0.67 0.66 0.67 0.69 0.71 0.74 0.75 0.70 0.65 0.67 0.60 0.39 0.47 0.51 0.48 0.46 0.46 0.63 0.58 0.55 0.54 0.48 0.39 0.39 0.42 0.37 0.31 0.27 0.20 0.29 0.35 0.39
0.50 0.49 0.49 0.48 0.46 0.45 0.45 0.47 0.46 0.46 0.48 0.51 0.51 0.51 0.54 0.60 0.65 0.62 0.65 0.66 0.62 0.81 0.85 0.72 0.59 0.52 0.37 0.56 0.51 0.55 0.57 0.38 0.56 0.62 0.60 0.56 0.49 0.39 0.40 0.35 0.30 0.29 0.19 0.21 0.27 0.37 0.39
0.50 0.50 0.48 0.50 0.46 0.49 0.51 0.51 0.53 0.52 0.53 0.53 0.54 0.55 0.54 0.55 0.61 0.66 0.61 0.64 0.62 0.82 0.82 0.72 0.70 0.44 0.37 0.33 0.54 0.68 0.72 0.63 0.39 0.52 0.51 0.49 0.42 0.36 0.38 0.35 0.26 0.23 0.19 0.21 0.25 0.33 0.36
0.48 0.48 0.47 0.47 0.47 0.46 0.46 0.49 0.47 0.48 0.52 0.54 0.53 0.52 0.55 0.54 0.57 0.62 0.59 0.45 0.41 0.45 0.63 0.51 0.47 0.39 0.36 0.54 0.69 0.58 0.69 0.60 0.46 0.38 0.37 0.44 0.33 0.29 0.36 0.37 0.34 0.27 0.24 0.20 0.26 0.32 0.32
0.46 0.46 0.44 0.45 0.46 0.44 0.50 0.50 0.48 0.49 0.53 0.51 0.51 0.53 0.52 0.57 0.57 0.60 0.58 0.44 0.51 0.59 0.39 0.48 0.49 0.49 0.49 0.54 0.41 0.48 0.61 0.51 0.40 0.31 0.38 0.36 0.28 0.36 0.40 0.39 0.36 0.33 0.27 0.23 0.26 0.32 0.34
0.44 0.46 0.45 0.45 0.45 0.44 0.46 0.47 0.47 0.49 0.48 0.47 0.50 0.52 0.54 0.56 0.57 0.50 0.47 0.49 0.68 0.65 0.43 0.39 0.41 0.40 0.41 0.42 0.33 0.27 0.52 0.53 0.41 0.34 0.31 0.31 0.36 0.38 0.39 0.39 0.34 0.33 0.28 0.23 0.24 0.33 0.37
0.46 0.46 0.44 0.46 0.43 0.46 0.47 0.46 0.45 0.45 0.46 0.45 0.49 0.53 0.55 0.57 0.44 0.49 0.44 0.62 0.65 0.68 0.28 0.23 0.27 0.29 0.36 0.42 0.32 0.31 0.36 0.45 0.44 0.34 0.35 0.33 0.40 0.37 0.35 0.34 0.36 0.29 0.33 0.24 0.28 0.31 0.26
0.47 0.47 0.45 0.46 0.45 0.42 0.45 0.45 0.42 0.44 0.45 0.45 0.49 0.53 0.57 0.59 0.47 0.44 0.49 0.57 0.57 0.65 0.13 0.15 0.24 0.33 0.38 0.30 0.30 0.30 0.33 0.34 0.38 0.40 0.38 0.32 0.37 0.36 0.34 0.36 0.36 0.32 0.31 0.29 0.35 0.32 0.32
0.46 0.45 0.47 0.44 0.43 0.46 0.43 0.42 0.43 0.45 0.45 0.44 0.48 0.55 0.58 0.54 0.55 0.57 0.60 0.54 0.52 0.26 0.16 0.16 0.20 0.28 0.31 0.30 0.30 0.34 0.34 0.36 0.35 0.40 0.44 0.38 0.48 0.42 0.37 0.40 0.38 0.39 0.36 0.38 0.38 0.35 0.25
0.44 0.44 0.47 0.43 0.43 0.44 0.42 0.42 0.43 0.44 0.45 0.45 0.48 0.54 0.58 0.60 0.42 0.62 0.59 0.42 0.22 0.15 0.21 0.16 0.22 0.22 0.25 0.29 0.30 0.30 0.28 0.25 0.19 0.27 0.31 0.39 0.40 0.47 0.46 0.39 0.41 0.39 0.35 0.27 0.25 0.26 0.23
0.44 0.47 0.47 0.44 0.42 0.43 0.42 0.44 0.43 0.45 0.44 0.45 0.48 0.54 0.56 0.59 0.65 0.66 0.52 0.29 0.14 0.21 0.20 0.22 0.21 0.22 0.23 0.29 0.34 0.26 0.25 0.17 0.21 0.25 0.29 0.29 0.28 0.39 0.45 0.41 0.38 0.36 0.35 0.28 0.21 0.22 0.23
0.47 0.46 0.44 0.44 0.43 0.43 0.42 0.43 0.43 0.45 0.45 0.48 0.50 0.49 0.49 0.55 0.66 0.63 0.39 0.17 0.18 0.21 0.27 0.21 0.17 0.16 0.21 0.30 0.32 0.30 0.25 0.22 0.16 0.25 0.24 0.29 0.29 0.38 0.40 0.41 0.41 0.36 0.31 0.39 0.32 0.35 0.27
0.43 0.44 0.45 0.46 0.43 0.42 0.41 0.42 0.43 0.43 0.44 0.46 0.44 0.42 0.41 0.59 0.66 0.54 0.31 0.20 0.23 0.36 0.32 0.25 0.14 0.19 0.18 0.23 0.29 0.32 0.35 0.42 0.28 0.22 0.28 0.29 0.26 0.36 0.38 0.42 0.42 0.38 0.41 0.31 0.34 0.23 0.21
0.41 0.41 0.44 0.44 0.41 0.41 0.38 0.38 0.42 0.43 0.47 0.51 0.44 0.32 0.43 0.61 0.62 0.41 0.21 0.24 0.26 0.33 0.36 0.26 0.21 0.18 0.22 0.23 0.26 0.27 0.33 0.42 0.48 0.43 0.35 0.30 0.27 0.26 0.35 0.35 0.35 0.35 0.33 0.36 0.37 0.34 0.25
0.39 0.39 0.40 0.42 0.41 0.40 0.38 0.38 0.42 0.44 0.49 0.51 0.41 0.25 0.52 0.61 0.33 0.33 0.25 0.30 0.33 0.30 0.35 0.32 0.29 0.25 0.22 0.22 0.22 0.24 0.29 0.35 0.44 0.52 0.41 0.42 0.33 0.24 0.25 0.35 0.41 0.39 0.37 0.36 0.29 0.29 0.33
0.39 0.38 0.41 0.42 0.41 0.40 0.38 0.38 0.43 0.45 0.53 0.48 0.34 0.34 0.54 0.56 0.24 0.27 0.32 0.30 0.31 0.31 0.31 0.31 0.29 0.29 0.26 0.22 0.17 0.23 0.29 0.40 0.39 0.47 0.43 0.44 0.39 0.28 0.27 0.32 0.37 0.33 0.35 0.35 0.37 0.36 0.29
0.40 0.42 0.42 0.43 0.40 0.39 0.40 0.39 0.42 0.44 0.53 0.53 0.38 0.27 0.39 0.45 0.39 0.32 0.29 0.27 0.26 0.34 0.33 0.36 0.33 0.33 0.28 0.23 0.26 0.21 0.23 0.32 0.39 0.38 0.56 0.49 0.39 0.35 0.25 0.31 0.41 0.34 0.37 0.37 0.33 0.28 0.30
0.41 0.38 0.37 0.37 0.36 0.35 0.37 0.38 0.41 0.44 0.54 0.54 0.40 0.31 0.38 0.26 0.30 0.33 0.34 0.30 0.28 0.27 0.34 0.36 0.32 0.31 0.30 0.24 0.22 0.20 0.22 0.25 0.28 0.38 0.45 0.47 0.33 0.39 0.41 0.39 0.41 0.38 0.37 0.38 0.35 0.36 0.31
0.40 0.42 0.44 0.45 0.46 0.44 0.42 0.35 0.41 0.44 0.56 0.49 0.35 0.33 0.39 0.36 0.35 0.35 0.34 0.30 0.29 0.32 0.32 0.31 0.29 0.32 0.33 0.26 0.24 0.20 0.20 0.22 0.23 0.31 0.36 0.41 0.34 0.38 0.32 0.37 0.35 0.34 0.40 0.39 0.38 0.37 0.36
0.47 0.51 0.53 0.55 0.56 0.54 0.50 0.44 0.39 0.45 0.58 0.47 0.49 0.50 0.44 0.36 0.34 0.31 0.31 0.33 0.32 0.36 0.38 0.36 0.35 0.34 0.30 0.31 0.35 0.33 0.31 0.28 0.28 0.29 0.29 0.35 0.32 0.31 0.25 0.34 0.30 0.24 0.34 0.36 0.37 0.40 0.38
0.53 0.54 0.55 0.57 0.58 0.60 0.57 0.52 0.48 0.49 0.59 0.55 0.52 0.49 0.38 0.29 0.33 0.32 0.36 0.38 0.36 0.36 0.34 0.38 0.39 0.35 0.40 0.47 0.44 0.39 0.34 0.28 0.28 0.29 0.33 0.32 0.36 0.35 0.26 0.30 0.20 0.28 0.42 0.43 0.41 0.41 0.42
0.57 0.56 0.57 0.60 0.59 0.62 0.61 0.57 0.55 0.57 0.63 0.59 0.59 0.52 0.42 0.32 0.37 0.38 0.38 0.38 0.40 0.41 0.39 0.38 0.39 0.43 0.48 0.43 0.32 0.28 0.27 0.26 0.24 0.25 0.25 0.33 0.36 0.29 0.22 0.23 0.23 0.25 0.30 0.34 0.32 0.34 0.37
0.59 0.59 0.62 0.63 0.62 0.61 0.62 0.61 0.62 0.65 0.66 0.64 0.60 0.63 0.51 0.38 0.34 0.43 0.40 0.41 0.36 0.36 0.38 0.39 0.44 0.49 0.46 0.39 0.32 0.22 0.18 0.21 0.20 0.23 0.32 0.31 0.35 0.27 0.22 0.17 0.13 0.18 0.28 0.31 0.32 0.16 0.36
0.63 0.63 0.64 0.64 0.66 0.64 0.65 0.66 0.67 0.67 0.68 0.65 0.59 0.65 0.54 0.40 0.46 0.47 0.39 0.40 0.45 0.41 0.36 0.37 0.39 0.40 0.45 0.34 0.27 0.23 0.21 0.27 0.18 0.21 0.23 0.23 0.27 0.23 0.24 0.22 0.20 0.26 0.33 0.37 0.18 0.17 0.37
0.64 0.65 0.66 0.67 0.67 0.66 0.66 0.65 0.66 0.68 0.70 0.66 0.59 0.69 0.55 0.43 0.47 0.50 0.52 0.47 0.47 0.42 0.34 0.39 0.39 0.39 0.36 0.29 0.27 0.26 0.24 0.25 0.23 0.27 0.27 0.25 0.23 0.22 0.25 0.21 0.13 0.32 0.36 0.27 0.36 0.38 0.44
0.62 0.63 0.65 0.66 0.66 0.68 0.68 0.68 0.66 0.65 0.67 0.70 0.55 0.68 0.69 0.50 0.48 0.63 0.62 0.59 0.54 0.51 0.43 0.44 0.37 0.37 0.37 0.31 0.31 0.31 0.26 0.29 0.26 0.19 0.33 0.23 0.27 0.23 0.25 0.18 0.29 0.43 0.41 0.44 0.45 0.41 0.44
Wind_Speed
30 30 30 30 30 30 30 31 31 31 32 33 34 35 36 37 37 37 37 36 34 33 31 30 29 27 24 21 22 21 17 15 15 16 15 14 13 13 13 12 11 12 12 11 13 15 12
29 29 29 30 30 30 30 30 31 32 32 32 32 32 33 34 37 37 37 37 36 34 32 32 30 28 25 24 20 21 22 21 21 19 18 16 15 15 13 14 12 12 12 14 13 11 11
29 29 29 29 29 28 29 30 30 30 31 31 30 31 30 31 32 33 35 37 37 36 35 32 30 28 28 27 23 23 21 21 23 22 20 18 17 13 13 13 14 13 13 14 13 11 11
30 30 29 29 28 28 28 28 28 29 29 29 30 30 30 29 28 30 32 33 36 37 36 34 31 29 29 25 25 24 25 24 23 22 20 20 18 16 15 14 12 12 11 11 9 5 8
31 30 30 29 29 29 28 29 29 29 29 29 29 29 30 30 29 30 29 31 32 34 35 33 30 27 28 24 24 24 24 24 24 23 21 18 18 17 15 14 12 12 12 11 10 8 7
31 31 30 30 30 29 29 29 29 30 30 30 30 29 29 28 28 26 26 28 26 23 24 25 25 25 27 22 21 21 22 22 23 23 21 20 17 16 16 14 15 14 12 12 12 9 9
33 32 32 32 31 31 31 31 30 30 30 30 29 29 28 27 27 26 25 22 20 22 22 28 27 28 24 21 21 23 19 20 23 24 23 22 19 20 18 18 15 13 12 13 14 13 12
34 34 34 33 32 32 31 31 31 31 30 30 30 29 28 27 25 24 21 16 16 20 25 30 35 35 35 28 25 25 24 22 22 24 23 21 26 19 18 18 16 15 15 15 15 15 11
36 35 34 34 33 33 33 32 32 31 31 30 29 28 27 26 25 21 19 17 17 21 22 24 27 31 31 32 32 32 25 24 22 23 27 25 17 22 21 18 16 16 15 15 16 13 14
37 36 36 35 35 34 34 33 33 32 31 30 29 28 26 25 22 19 18 16 19 19 19 19 21 22 23 26 28 31 31 27 24 26 22 25 25 18 19 22 18 18 18 17 17 13 14
38 38 37 36 36 36 35 34 34 32 32 31 29 28 26 24 22 21 20 21 19 14 13 10 12 14 17 22 20 21 31 28 27 24 23 24 21 24 19 18 19 17 16 16 16 16 14
40 39 38 38 37 36 36 36 35 33 33 32 30 29 27 25 23 23 22 20 17 14 16 11 10 10 13 19 18 16 24 26 27 23 23 25 20 22 26 23 20 14 15 14 14 14 15
41 40 39 39 38 38 37 36 35 34 34 33 32 31 29 26 24 22 21 19 17 18 13 13 10 10 14 14 17 18 21 27 24 24 25 21 23 21 19 17 20 18 15 13 13 13 15
42 41 40 40 39 38 37 36 35 34 34 34 33 33 31 29 28 26 22 20 23 17 20 16 12 16 13 11 14 17 16 23 27 22 19 23 20 24 23 22 17 21 19 16 15 14 14
43 43 42 41 40 39 38 37 36 36 35 35 35 34 32 30 29 26 23 25 22 22 17 16 17 12 11 11 10 13 16 18 25 24 20 19 20 19 21 24 24 20 20 20 15 15 14
44 43 42 41 40 39 39 38 37 37 36 35 35 34 34 31 30 28 28 30 28 23 20 18 15 12 12 11 10 9 11 10 17 26 23 21 17 16 16 18 23 24 19 16 17 15 16
45 44 43 42 41 40 40 39 38 37 36 35 35 34 32 31 30 30 31 29 30 31 24 19 18 17 13 12 12 11 10 8 9 14 22 22 20 19 16 17 19 20 22 19 18 17 16
46 45 44 43 42 41 40 39 38 36 34 33 32 33 31 30 31 31 32 29 29 29 27 25 23 22 19 15 14 13 12 12 9 11 12 18 18 21 27 22 17 17 20 23 22 21 20
46 45 44 43 42 41 40 39 38 35 32 29 29 29 30 30 32 32 28 30 29 25 27 25 24 23 22 21 18 17 16 16 11 11 13 14 15 15 15 17 18 19 22 23 20 20 23
45 44 44 43 42 41 40 39 37 34 32 30 26 24 27 31 30 32 30 28 27 26 29 25 24 22 23 22 21 22 20 19 18 15 15 17 17 16 17 16 18 21 20 21 24 23 22
44 44 43 43 43 42 41 39 37 34 32 30 28 27 24 24 30 28 30 26 27 25 24 23 24 27 23 21 21 23 23 22 21 20 16 17 19 18 19 20 20 21 22 22 22 23 25
44 44 44 43 43 42 41 39 36 34 32 33 28 27 27 22 27 28 28 28 27 25 23 20 22 21 24 26 26 24 24 21 23 21 19 18 18 18 20 20 20 20 23 23 24 25 26
43 42 41 42 43 43 41 39 38 36 35 32 31 31 25 25 25 27 28 24 26 22 20 24 19 20 21 24 24 25 28 30 28 24 23 23 22 20 20 19 21 19 18 20 23 26 26
37 38 39 39 40 41 43 41 39 38 38 35 28 27 27 23 24 26 25 27 24 24 21 16 20 19 16 15 16 18 22 24 28 28 27 24 21 20 22 20 21 21 19 18 19 21 24
36 37 37 36 33 32 36 37 38 38 39 37 34 30 29 28 27 26 27 26 25 23 23 21 19 16 16 15 13 13 13 16 20 22 25 27 24 22 21 22 25 24 22 21 19 28 26
34 33 33 32 31 29 32 35 37 38 39 38 37 35 30 28 30 27 25 26 23 23 23 21 18 17 16 15 14 13 12 12 11 12 15 16 18 21 21 22 24 25 23 22 21 27 21
30 30 30 30 30 31 32 34 36 38 39 38 34 38 32 27 27 28 26 24 22 21 19 18 18 17 17 15 15 15 13 12 11 11 11 13 14 18 16 18 22 22 23 23 21 25 23
27 28 29 29 30 32 33 33 35 36 38 38 36 35 37 27 26 30 28 23 23 23 19 17 15 17 16 18 16 16 15 15 13 13 11 11 11 12 13 14 18 15 13 14 20 22 23
27 28 28 29 30 32 34 34 35 37 37 38 32 34 37 33 24 24 27 28 30 27 20 19 19 16 17 17 18 15 15 14 14 13 14 14 15 14 15 15 15 15 18 20 23 24 23
Wind_Direction
290 290 291 293 294 294 295 296 298 299 300 301 300 295 289 280 277 276 272 270 270 271 270 270 270 269 263 255 249 248 245 240 235 235 238 240 243 243 248 249 242 249 265 268 280 291 286
289 290 291 292 293 293 294 296 296 297 298 299 301 301 295 287 279 275 273 269 268 269 268 267 266 265 255 253 248 248 244 243 241 240 239 241 242 241 250 247 243 252 263 277 280 282 280
288 289 290 291 292 293 294 295 295 295 295 296 298 300 303 298 286 278 275 268 267 266 264 264 262 257 252 248 250 250 246 242 241 240 239 240 239 240 245 250 250 257 269 281 275 270 274
286 288 289 289 290 291 292 293 293 294 295 296 297 299 302 304 295 285 278 275 267 264 264 259 256 251 252 251 251 249 245 241 238 236 237 239 238 236 241 248 255 259 269 280 273 253 281
285 286 287 287 288 288 289 290 291 292 294 295 297 298 299 300 301 290 287 276 274 266 257 252 247 248 254 250 247 244 238 236 231 231 235 236 233 234 236 240 255 263 258 255 270 261 281
283 284 285 285 285 286 287 288 289 291 292 294 295 297 298 299 299 299 289 284 274 262 251 240 243 248 248 245 243 240 238 234 230 226 231 232 234 233 234 234 241 242 251 246 251 261 285
282 282 282 283 283 284 284 286 287 289 291 292 294 295 295 297 298 298 298 285 271 258 253 243 244 244 247 249 246 235 234 229 229 224 226 230 230 228 229 231 235 239 246 247 252 260 288
280 281 280 280 281 281 283 284 285 287 289 291 292 293 294 294 295 297 295 283 273 270 265 254 250 248 247 248 248 240 235 227 225 226 223 228 234 231 227 232 234 241 251 252 259 263 264
278 278 278 278 279 280 281 282 284 285 287 289 290 291 292 291 292 291 287 279 278 282 266 261 251 248 245 237 239 240 231 226 227 224 223 228 239 225 226 229 232 241 242 246 244 267 273
276 276 276 276 277 278 279 281 281 283 284 286 287 288 288 289 286 284 283 279 288 288 271 265 254 249 234 232 239 233 227 225 227 223 224 233 231 229 230 232 228 242 238 242 249 258 265
274 274 274 274 275 277 277 279 280 280 282 283 284 284 284 282 280 277 278 284 283 277 271 259 245 244 231 224 242 234 223 223 220 222 222 232 225 226 228 232 225 239 236 234 246 253 270
273 273 273 273 274 275 276 277 278 278 280 280 280 280 279 276 273 273 275 277 269 259 254 267 247 241 231 235 235 231 218 221 221 223 228 229 229 225 232 232 229 226 235 241 252 254 259
272 272 271 272 272 274 275 275 276 277 278 277 277 276 274 270 267 268 271 264 257 249 261 256 257 250 250 237 231 224 219 217 215 218 225 230 228 229 227 225 229 226 230 246 256 254 255
271 270 270 271 271 272 273 273 274 276 277 276 274 274 270 266 262 263 262 250 247 252 250 260 264 269 235 225 235 219 216 219 222 219 220 223 231 222 227 225 226 226 223 230 240 246 259
270 269 269 270 270 270 270 271 273 275 275 274 273 271 266 262 256 254 251 245 248 245 255 263 262 250 244 237 239 221 217 222 221 221 220 222 232 230 228 226 220 229 229 234 244 256 261
269 268 268 267 268 267 268 270 271 273 273 272 270 267 262 255 249 247 246 243 243 245 253 254 249 248 245 245 232 231 217 239 227 221 224 225 231 226 231 223 227 225 227 232 243 242 250
268 267 266 266 266 266 267 268 270 271 271 269 267 264 259 246 241 242 242 239 242 244 249 243 241 242 239 237 237 236 232 223 243 228 222 225 228 230 225 222 221 224 231 237 238 239 246
267 266 266 265 264 265 266 266 267 269 268 264 262 259 252 236 237 240 238 237 239 242 243 241 239 241 239 240 238 236 231 222 256 236 219 226 228 231 235 232 230 227 231 230 235 243 250
266 265 264 263 263 263 264 264 264 264 260 258 257 254 245 230 235 234 235 237 236 237 235 237 238 238 239 238 235 233 234 231 250 240 228 232 232 234 241 234 236 235 237 236 240 246 245
264 263 262 262 262 261 262 261 260 257 253 247 248 247 238 230 234 230 230 231 231 233 236 235 236 236 236 237 235 236 238 237 247 245 243 239 231 230 233 234 237 245 249 246 240 244 250
263 262 262 260 260 260 259 258 255 250 243 237 237 238 234 229 229 228 224 227 226 228 230 229 235 232 234 236 238 239 239 240 241 241 241 239 233 236 241 243 243 248 252 252 245 249 249
262 262 261 260 259 258 257 252 245 241 235 233 233 231 231 235 224 221 221 223 223 225 227 229 233 236 233 234 233 238 237 237 238 239 242 245 239 239 243 246 247 252 252 256 254 251 253
262 260 259 260 260 257 250 244 240 235 228 230 229 228 229 226 223 218 219 217 221 223 231 231 229 231 234 237 237 239 241 239 238 242 245 245 240 242 246 254 258 252 246 254 258 257 257
260 260 261 262 261 255 243 239 233 227 224 224 223 220 221 222 217 218 219 220 221 221 221 222 226 225 224 225 239 243 236 237 240 243 237 244 241 245 247 253 246 247 251 244 257 257 268
262 261 261 260 258 248 233 228 224 222 221 221 221 221 221 227 226 223 220 221 224 225 225 225 223 220 223 233 237 237 234 237 238 238 235 234 238 243 247 248 257 256 252 256 262 268 276
263 260 258 253 248 238 228 224 223 221 220 221 222 221 223 226 226 222 220 219 220 219 219 223 224 222 222 223 223 223 223 225 230 234 226 229 238 243 249 253 254 252 258 262 263 262 269
263 258 254 249 241 234 228 225 222 220 219 218 221 219 222 226 225 218 221 219 215 211 217 216 224 222 215 217 220 222 226 228 233 225 229 230 240 243 247 257 264 260 264 264 258 266 269
262 257 251 245 238 231 227 223 220 217 216 215 219 218 217 224 227 224 221 216 214 212 213 215 215 223 219 218 224 225 227 230 233 232 229 229 230 240 243 257 271 260 263 256 254 267 269
263 257 250 242 236 230 226 221 218 215 213 212 218 215 217 224 226 224 221 222 220 219 218 213 218 219 218 219 225 227 232 235 233 242 239 243 239 245 243 255 269 267 274 276 269 266 264